Weather History for Fergus Falls, MN

Change the Weather History Date:

Monday, April 1, 2013

  Actual Average Record
Temperature  
Mean Temperature 15 °F -  
Max Temperature 24 °F 43 °F 69 °F (1963)
Min Temperature 6 °F 23 °F -1 °F (1975)
Degree Days  
Heating Degree Days 50    
Moisture  
Dew Point 11 °F    
Average Humidity 80    
Maximum Humidity 92    
Minimum Humidity 69    
Precipitation  
Precipitation 0.00 in - - ()
Sea Level Pressure  
Sea Level Pressure 30.27 in    
Wind  
Wind Speed 9 mph (NW)    
Max Wind Speed 14 mph    
Max Gust Speed 17 mph    
Visibility 10 miles    
Events      
Averages and records for this station are not official NWS values.
T = Trace of Precipitation, MM = Missing Value Source: NWS Daily Summary

Daily Weather History Graph

Daily Weather History Graph

Search for Another Location

Airport:

Trip Planner

Search our weather history database for the weather conditions in past years. The results will help you decide how hot, cold, wet, or windy it might be!

Date:

Astronomy

Apr. 01, 2013 Rise Set
Actual Time 7:03 AM CDT 7:53 PM CDT
Civil Twilight 6:33 AM CDT 8:24 PM CDT
Nautical Twilight 5:57 AM CDT 9:00 PM CDT
Astronomical Twilight 5:19 AM CDT 9:38 PM CDT
Moon 1:17 AM CDT (4/1) 10:36 AM CDT (4/1)
Length of Visible Light 13h 50m
Length of Day
12h 50m
Waning Gibbous, 67% of the Moon is Illuminated
Apr 1
Waning Gibbous
Apr 2
Last Quarter
Apr 10
New
Apr 18
First Quarter
Apr 25
Full

Hourly Weather History & Observations

Time (CDT) Temp. Windchill Dew Point Humidity Pressure Visibility Wind Dir Wind Speed Gust Speed Precip Events Conditions
12:14 AM 15.8 °F 2.1 °F 10.4 °F 79% 30.20 in 10.0 mi NNW 12.7 mph - N/A   Clear
12:53 AM 15.8 °F 4.2 °F 10.4 °F 79% 30.21 in 10.0 mi NNW 9.2 mph - N/A   Clear
1:14 AM 15.8 °F 2.7 °F 10.4 °F 79% 30.21 in 10.0 mi NNW 11.5 mph - N/A   Clear
1:33 AM 15.8 °F 4.2 °F 10.4 °F 79% 30.21 in 10.0 mi NNW 9.2 mph - N/A   Clear
1:53 AM 14.0 °F 3.9 °F 10.4 °F 86% 30.21 in 10.0 mi NW 6.9 mph - N/A   Clear
2:13 AM 12.2 °F 1.7 °F 8.6 °F 85% 30.22 in 10.0 mi NNW 6.9 mph - N/A   Clear
2:33 AM 10.4 °F -0.4 °F 8.6 °F 92% 30.22 in 10.0 mi NW 6.9 mph - N/A   Clear
2:53 AM 10.4 °F -2.4 °F 6.8 °F 85% 30.22 in 10.0 mi NW 9.2 mph - N/A   Clear
3:14 AM 10.4 °F -1.5 °F 6.8 °F 85% 30.23 in 10.0 mi WNW 8.1 mph - N/A   Clear
3:33 AM 8.6 °F -2.6 °F 6.8 °F 92% 30.23 in 10.0 mi NW 6.9 mph - N/A   Clear
3:53 AM 8.6 °F -1.3 °F 6.8 °F 92% 30.23 in 10.0 mi NW 5.8 mph - N/A   Clear
4:14 AM 8.6 °F -2.6 °F 5.0 °F 85% 30.24 in 10.0 mi WNW 6.9 mph - N/A   Clear
4:33 AM 8.6 °F -2.6 °F 5.0 °F 85% 30.24 in 10.0 mi WNW 6.9 mph - N/A   Clear
4:53 AM 8.6 °F -2.6 °F 5.0 °F 85% 30.24 in 10.0 mi WNW 6.9 mph - N/A   Clear
5:13 AM 8.6 °F -3.7 °F 5.0 °F 85% 30.24 in 10.0 mi NW 8.1 mph - N/A   Clear
5:33 AM 8.6 °F -2.6 °F 5.0 °F 85% 30.25 in 10.0 mi WNW 6.9 mph - N/A   Clear
5:53 AM 8.6 °F -3.7 °F 5.0 °F 85% 30.25 in 10.0 mi NW 8.1 mph - N/A   Clear
6:13 AM 6.8 °F -5.9 °F 3.2 °F 85% 30.26 in 10.0 mi NW 8.1 mph - N/A   Clear
6:33 AM 8.6 °F -6.3 °F 6.8 °F 92% 30.26 in 10.0 mi NNW 11.5 mph - N/A   Clear
6:53 AM 8.6 °F -4.7 °F 6.8 °F 92% 30.27 in 10.0 mi NNW 9.2 mph - N/A   Clear
7:13 AM 8.6 °F -1.3 °F 5.0 °F 85% 30.28 in 10.0 mi NNW 5.8 mph - N/A   Clear
7:33 AM 8.6 °F -1.3 °F 6.8 °F 92% 30.28 in 10.0 mi NNW 5.8 mph - N/A   Clear
7:53 AM 8.6 °F -2.6 °F 5.0 °F 85% 30.29 in 10.0 mi NW 6.9 mph - N/A   Clear
8:13 AM 8.6 °F 0.1 °F 5.0 °F 85% 30.30 in 10.0 mi NW 4.6 mph - N/A   Clear
8:33 AM 8.6 °F -1.3 °F 6.8 °F 92% 30.30 in 10.0 mi WNW 5.8 mph - N/A   Clear
8:53 AM 10.4 °F 2.2 °F 6.8 °F 85% 30.30 in 10.0 mi NW 4.6 mph - N/A   Clear
9:13 AM 10.4 °F -0.4 °F 6.8 °F 85% 30.30 in 10.0 mi WNW 6.9 mph - N/A   Clear
9:33 AM 10.4 °F -1.5 °F 6.8 °F 85% 30.31 in 10.0 mi WNW 8.1 mph - N/A   Clear
9:53 AM 10.4 °F -0.4 °F 6.8 °F 85% 30.31 in 10.0 mi WNW 6.9 mph - N/A   Clear
10:13 AM 12.2 °F 1.7 °F 8.6 °F 85% 30.31 in 10.0 mi NW 6.9 mph - N/A   Clear
10:33 AM 12.2 °F 1.7 °F 8.6 °F 85% 30.31 in 10.0 mi NW 6.9 mph - N/A   Clear
10:53 AM 14.0 °F 2.9 °F 8.6 °F 79% 30.31 in 10.0 mi NW 8.1 mph - N/A   Clear
11:13 AM 15.8 °F 4.2 °F 10.4 °F 79% 30.31 in 10.0 mi NW 9.2 mph - N/A   Clear
11:33 AM 15.8 °F 3.4 °F 10.4 °F 79% 30.31 in 10.0 mi NW 10.4 mph - N/A   Clear
11:53 AM 17.6 °F 5.7 °F 10.4 °F 73% 30.32 in 10.0 mi WNW 10.4 mph - N/A   Clear
12:13 PM 17.6 °F 6.4 °F 12.2 °F 79% 30.32 in 10.0 mi WNW 9.2 mph - N/A   Clear
12:33 PM 19.4 °F 7.9 °F 12.2 °F 74% 30.32 in 10.0 mi NW 10.4 mph - N/A   Clear
12:53 PM 19.4 °F 7.9 °F 12.2 °F 74% 30.32 in 10.0 mi NW 10.4 mph - N/A   Clear
1:13 PM 19.4 °F 6.6 °F 12.2 °F 74% 30.32 in 10.0 mi NW 12.7 mph - N/A   Clear
1:33 PM 19.4 °F 7.2 °F 12.2 °F 74% 30.31 in 10.0 mi NW 11.5 mph - N/A   Clear
1:53 PM 21.2 °F 9.5 °F 14.0 °F 74% 30.31 in 10.0 mi NW 11.5 mph - N/A   Clear
2:13 PM 21.2 °F 9.5 °F 14.0 °F 74% 30.31 in 10.0 mi NW 11.5 mph - N/A   Clear
2:33 PM 21.2 °F 9.5 °F 14.0 °F 74% 30.31 in 10.0 mi NW 11.5 mph - N/A   Clear
2:53 PM 21.2 °F 9.5 °F 15.8 °F 80% 30.31 in 10.0 mi NW 11.5 mph - N/A   Clear
3:13 PM 23.0 °F 10.6 °F 15.8 °F 74% 30.30 in 10.0 mi NW 13.8 mph - N/A   Clear
3:33 PM 24.8 °F 12.9 °F 15.8 °F 69% 30.30 in 10.0 mi NW 13.8 mph - N/A   Clear
3:53 PM 24.8 °F 13.4 °F 15.8 °F 69% 30.30 in 10.0 mi NNW 12.7 mph - N/A   Clear
4:13 PM 24.8 °F 12.9 °F 15.8 °F 69% 30.30 in 10.0 mi NW 13.8 mph 17.3 mph N/A   Clear
4:33 PM 24.8 °F 14.6 °F 15.8 °F 69% 30.30 in 10.0 mi NNW 10.4 mph - N/A   Clear
4:53 PM 24.8 °F 15.3 °F 15.8 °F 69% 30.29 in 10.0 mi NW 9.2 mph - N/A   Clear
5:13 PM 24.8 °F 14.0 °F 15.8 °F 69% 30.29 in 10.0 mi NW 11.5 mph - N/A   Clear
5:33 PM 24.8 °F 14.6 °F 15.8 °F 69% 30.29 in 10.0 mi NW 10.4 mph - N/A   Clear
5:53 PM 24.8 °F 15.3 °F 17.6 °F 74% 30.28 in 10.0 mi NW 9.2 mph - N/A   Clear
6:13 PM 24.8 °F 15.3 °F 17.6 °F 74% 30.28 in 10.0 mi WNW 9.2 mph - N/A   Clear
6:33 PM 24.8 °F 15.3 °F 17.6 °F 74% 30.28 in 10.0 mi WNW 9.2 mph - N/A   Clear
6:53 PM 24.8 °F 16.9 °F 17.6 °F 74% 30.27 in 10.0 mi WNW 6.9 mph - N/A   Clear
7:13 PM 24.8 °F 17.9 °F 17.6 °F 74% 30.27 in 10.0 mi WNW 5.8 mph - N/A   Clear
7:33 PM 24.8 °F 19.1 °F 17.6 °F 74% 30.27 in 10.0 mi West 4.6 mph - N/A   Clear
7:53 PM 23.0 °F 17.0 °F 15.8 °F 74% 30.26 in 10.0 mi WNW 4.6 mph - N/A   Clear
8:13 PM 21.2 °F 14.9 °F 15.8 °F 80% 30.26 in 10.0 mi West 4.6 mph - N/A   Clear
8:33 PM 21.2 °F 14.9 °F 15.8 °F 80% 30.26 in 10.0 mi West 4.6 mph - N/A   Clear
8:53 PM 19.4 °F 9.5 °F 15.8 °F 86% 30.26 in 10.0 mi NW 8.1 mph - N/A   Clear
9:13 PM 19.4 °F 10.4 °F 14.0 °F 80% 30.27 in 10.0 mi NW 6.9 mph - N/A   Clear
9:33 PM 17.6 °F 9.3 °F 14.0 °F 86% 30.27 in 10.0 mi NNW 5.8 mph - N/A   Clear
9:53 PM 17.6 °F 10.7 °F 12.2 °F 79% 30.28 in 10.0 mi NW 4.6 mph - N/A   Clear
10:13 PM 17.6 °F 10.7 °F 12.2 °F 79% 30.28 in 10.0 mi NW 4.6 mph - N/A   Clear
10:33 PM 17.6 °F - 12.2 °F 79% 30.27 in 10.0 mi Calm Calm - N/A   Clear
10:53 PM 17.6 °F 12.3 °F 12.2 °F 79% 30.27 in 10.0 mi West 3.5 mph - N/A   Clear
11:13 PM 17.6 °F 12.3 °F 12.2 °F 79% 30.27 in 10.0 mi West 3.5 mph - N/A   Clear
11:33 PM 17.6 °F 12.3 °F 12.2 °F 79% 30.27 in 10.0 mi WNW 3.5 mph - N/A   Clear
11:53 PM 17.6 °F 9.3 °F 12.2 °F 79% 30.27 in 10.0 mi NW 5.8 mph - N/A   Clear